Home   Weather   Norwalk   Past weeks

Flag for USA Past Weather in Norwalk, California, USA — Yesterday and Last 2 Weeks

Now
63 °F

Clear.


Feels Like: 63 °F
Forecast: 64 / 96 °F
Wind: No wind

Location: Fullerton Municipal Airport

Current Time: Sep 25, 2016 at 5:19:55 AM

Latest Report: Sep 25, 2016 at 4:53 AM


Visibility: 10 mi

Pressure: 29.96 "Hg

Humidity: 48%

Dew Point: 43 °F

Location of NorwalkLocation

Past Weather in Norwalk — Graph

°F

Norwalk Temperature Yesterday

Maximum temperature yesterday: 91 °F (at 12:53 PM)
Minimum temperature yesterday: 58 °F (at 6:53 AM)
Average temperature yesterday: 75 °F

High & Low Weather Summary for the Past Weeks

 TemperatureHumidityPressure
High96 °F (Sep 19, 12:53 PM)94% (Sep 19, 5:00 AM)30.07 "Hg (Sep 19, 5:00 AM)
Low58 °F (Sep 15, 6:53 AM)15% (Sep 24, 12:53 PM)29.80 "Hg (Sep 21, 4:53 PM)
Average72 °F61%29.93 "Hg
* Reported Sep 10 3:53 AM — Sep 25 3:53 AM, Norwalk, Weather by CustomWeather, © 2016

Note: Actual official high and low records may vary slightly from our data, if they occured in-between our weather recording intervals... More about our weather records

Advertising

Norwalk Weather History for the Previous 24 Hours

Scroll right to see more
 ConditionsComfort  
Time TempWeatherWind HumidityBarometerVisibility
3:53 AM
Sun, Sep 25
64 °FClear.3 mph45%29.95 "Hg10 mi
2:53 AM64 °FClear.No wind52%29.96 "Hg10 mi
1:53 AM65 °FClear.3 mph49%29.96 "Hg10 mi
12:53 AM67 °FClear.No wind42%29.96 "Hg10 mi
11:53 PM
Sat, Sep 24
70 °FClear.5 mph35%29.96 "Hg10 mi
10:53 PM70 °FClear.No wind39%29.96 "Hg10 mi
9:53 PM72 °FClear.No wind37%29.95 "Hg10 mi
8:53 PM75 °FClear.No wind32%29.96 "Hg10 mi
7:53 PM78 °FClear.3 mph25%29.94 "Hg10 mi
6:53 PM82 °FPassing clouds.No wind18%29.93 "Hg10 mi
5:53 PM85 °FPassing clouds.6 mph18%29.92 "Hg10 mi
4:53 PM89 °FSunny.8 mph20%29.92 "Hg10 mi
3:53 PM91 °FSunny.8 mph25%29.92 "Hg10 mi
2:53 PM89 °FSunny.9 mph26%29.93 "Hg10 mi
1:53 PM91 °FSunny.10 mph22%29.94 "Hg10 mi
12:53 PM91 °FSunny.6 mph15%29.96 "Hg10 mi
11:53 AM87 °FSunny.5 mph17%29.98 "Hg10 mi
10:53 AM82 °FSunny.No wind22%30.00 "Hg10 mi
9:53 AM77 °FSunny.No wind30%30.00 "Hg10 mi
8:53 AM72 °FSunny.No wind37%29.99 "Hg10 mi
7:53 AM64 °FSunny.No wind56%29.99 "Hg10 mi
6:53 AM58 °FSunny.No wind70%29.98 "Hg10 mi
5:53 AM59 °FClear.No wind69%29.98 "Hg10 mi
Weather by CustomWeather, © 2016

See weather overviewHow to use our weather pages